When you browse on this site, cookies collect data to enhance your experience and personalize the content and advertising you see.
Visit our Privacy Policy to learn more. By continuing to use the site, you agree to this use of cookies and data.
  • In Hungary
  • List of Countries
  • For 7 days
  • Water Temperature
  • Weather Map
  • News
  • Weather Widgets
  • user-avatar
    Login

    Hourly Weather Boali

    Today, 21 November, Thursday

    Time Temperature Precipitation Wind Pressure Humidity
    00:00 +24°C° 0 mm 0 mps 722 mmHg 71%
    01:00 +24°C° 0 mm 0 mps 722 mmHg 73%
    02:00 +24°C° 0 mm 0 mps 722 mmHg 75%
    03:00 +23°C° 0 mm 0 mps 722 mmHg 76%
    04:00 +23°C° 0 mm 0 mps 722 mmHg 77%
    05:00 +24°C° 0 mm 0 mps 722 mmHg 75%
    06:00 +25°C° 0 mm 0 mps 723 mmHg 74%
    07:00 +25°C° 0 mm 0 mps 724 mmHg 72%
    08:00 +28°C° 0 mm 0 mps 724 mmHg 62%
    09:00 +31°C° 0 mm 0 mps 724 mmHg 53%
    10:00 +34°C° 0 mm 0 mps 724 mmHg 43%
    11:00 +37°C° 0 mm 1 mps 723 mmHg 39%
    12:00 +37°C° 0 mm 1 mps 722 mmHg 34%
    13:00 +38°C° 0 mm 2 mps 722 mmHg 30%
    14:00 +38°C° 0 mm 2 mps 721 mmHg 33%
    15:00 +36°C° 0 mm 1 mps 721 mmHg 35%
    16:00 +36°C° 0 mm 1 mps 720 mmHg 38%
    17:00 +33°C° 0 mm 1 mps 720 mmHg 42%
    18:00 +31°C° 0 mm 1 mps 721 mmHg 45%
    19:00 +29°C° 0 mm 1 mps 721 mmHg 49%
    20:00 +26°C° 0 mm 0 mps 721 mmHg 52%
    21:00 +25°C° 0 mm 0 mps 722 mmHg 54%
    22:00 +24°C° 0 mm 0 mps 722 mmHg 56%
    23:00 +24°C° 0 mm 0 mps 722 mmHg 57%

    Tomorrow, 22 November, Friday

    Time Temperature Precipitation Wind Pressure Humidity
    00:00 +24°C° 0 mm 0 mps 722 mmHg 58%
    01:00 +25°C° 0 mm 1 mps 722 mmHg 59%
    02:00 +25°C° 0 mm 1 mps 722 mmHg 60%
    03:00 +24°C° 0 mm 1 mps 722 mmHg 61%
    04:00 +24°C° 0 mm 1 mps 722 mmHg 62%
    05:00 +24°C° 0 mm 1 mps 723 mmHg 64%
    06:00 +25°C° 0 mm 1 mps 724 mmHg 65%
    07:00 +25°C° 0 mm 1 mps 724 mmHg 66%
    08:00 +27°C° 0 mm 1 mps 724 mmHg 61%
    09:00 +29°C° 0 mm 2 mps 724 mmHg 56%
    10:00 +31°C° 0 mm 2 mps 724 mmHg 50%
    11:00 +34°C° 0 mm 2 mps 723 mmHg 45%
    12:00 +36°C° 0 mm 2 mps 723 mmHg 39%
    13:00 +36°C° 0 mm 1 mps 722 mmHg 34%
    14:00 +36°C° 0 mm 1 mps 722 mmHg 35%
    15:00 +35°C° 0 mm 1 mps 721 mmHg 36%
    16:00 +35°C° 0 mm 1 mps 721 mmHg 37%
    17:00 +33°C° 0 mm 1 mps 722 mmHg 41%
    18:00 +30°C° 0 mm 1 mps 722 mmHg 45%
    19:00 +28°C° 0 mm 1 mps 722 mmHg 49%
    20:00 +27°C° 0 mm 1 mps 723 mmHg 58%
    21:00 +26°C° 0 mm 1 mps 723 mmHg 68%
    22:00 +25°C° 0 mm 2 mps 724 mmHg 77%
    23:00 +25°C° 0 mm 1 mps 724 mmHg 81%

    Day after tomorrow, 23 November, Saturday

    Time Temperature Precipitation Wind Pressure Humidity
    00:00 +25°C° 0 mm 1 mps 724 mmHg 84%
    01:00 +24°C° 0 mm 1 mps 723 mmHg 87%
    02:00 +24°C° 0 mm 1 mps 723 mmHg 89%
    03:00 +23°C° 0 mm 1 mps 723 mmHg 92%
    04:00 +23°C° 0 mm 1 mps 723 mmHg 94%
    05:00 +23°C° 0 mm 2 mps 724 mmHg 91%
    06:00 +24°C° 0 mm 2 mps 724 mmHg 88%
    07:00 +25°C° 0 mm 3 mps 725 mmHg 85%
    08:00 +26°C° 0 mm 3 mps 725 mmHg 81%
    09:00 +27°C° 0 mm 3 mps 725 mmHg 77%
    10:00 +28°C° 0 mm 3 mps 725 mmHg 73%
    11:00 +29°C° 0 mm 2 mps 724 mmHg 66%
    12:00 +31°C° 0 mm 2 mps 724 mmHg 60%
    13:00 +32°C° 0 mm 1 mps 723 mmHg 53%
    14:00 +33°C° 0 mm 1 mps 723 mmHg 52%
    15:00 +33°C° 0 mm 1 mps 722 mmHg 50%
    16:00 +33°C° 0 mm 1 mps 722 mmHg 48%
    17:00 +31°C° 0 mm 1 mps 722 mmHg 54%
    18:00 +29°C° 0 mm 1 mps 723 mmHg 61%
    19:00 +27°C° 0 mm 1 mps 723 mmHg 67%
    20:00 +26°C° 0 mm 1 mps 723 mmHg 72%
    21:00 +25°C° 0 mm 1 mps 724 mmHg 76%
    22:00 +25°C° 0 mm 1 mps 724 mmHg 81%
    23:00 +24°C° 0.4 mm 1 mps 724 mmHg 84%

    24 November, Sunday

    Time Temperature Precipitation Wind Pressure Humidity
    00:00 +22°C° 0.4 mm 0 mps 724 mmHg 88%
    01:00 +22°C° 0.4 mm 0 mps 724 mmHg 92%
    02:00 +21°C° 0.1 mm 0 mps 724 mmHg 93%
    03:00 +21°C° 0.1 mm 0 mps 723 mmHg 95%
    04:00 +21°C° 0.1 mm 0 mps 723 mmHg 96%
    05:00 +22°C° 0 mm 0 mps 724 mmHg 93%
    06:00 +22°C° 0 mm 0 mps 724 mmHg 90%
    07:00 +23°C° 0 mm 0 mps 725 mmHg 87%
    08:00 +26°C° 0 mm 0 mps 725 mmHg 77%
    09:00 +30°C° 0 mm 1 mps 725 mmHg 67%
    10:00 +33°C° 0 mm 1 mps 725 mmHg 57%
    11:00 +34°C° 0 mm 1 mps 724 mmHg 51%
    12:00 +36°C° 0 mm 1 mps 723 mmHg 45%
    13:00 +37°C° 0 mm 1 mps 723 mmHg 39%
    14:00 +36°C° 0 mm 1 mps 722 mmHg 41%
    15:00 +35°C° 0 mm 1 mps 722 mmHg 43%
    16:00 +34°C° 0 mm 1 mps 721 mmHg 46%
    17:00 +32°C° 0 mm 1 mps 722 mmHg 50%
    18:00 +30°C° 0 mm 1 mps 722 mmHg 54%
    19:00 +29°C° 0 mm 1 mps 723 mmHg 59%
    20:00 +28°C° 0.1 mm 1 mps 723 mmHg 63%
    21:00 +27°C° 0.1 mm 1 mps 723 mmHg 67%
    22:00 +26°C° 0.1 mm 1 mps 724 mmHg 72%
    23:00 +26°C° 0 mm 1 mps 723 mmHg 76%

    25 November, Monday

    Time Temperature Precipitation Wind Pressure Humidity
    00:00 +25°C° 0 mm 1 mps 723 mmHg 81%
    01:00 +24°C° 0 mm 1 mps 723 mmHg 85%
    02:00 +24°C° 0 mm 1 mps 723 mmHg 86%
    03:00 +22°C° 0 mm 0 mps 723 mmHg 88%
    04:00 +22°C° 0 mm 0 mps 723 mmHg 89%
    05:00 +22°C° 0 mm 0 mps 723 mmHg 86%
    06:00 +23°C° 0 mm 0 mps 724 mmHg 83%
    07:00 +24°C° 0 mm 0 mps 724 mmHg 81%
    08:00 +29°C° 0 mm 1 mps 724 mmHg 71%
    09:00 +31°C° 0 mm 1 mps 725 mmHg 61%
    10:00 +34°C° 0 mm 1 mps 725 mmHg 52%
    11:00 +35°C° 0 mm 1 mps 724 mmHg 48%
    12:00 +36°C° 0 mm 1 mps 723 mmHg 44%
    13:00 +37°C° 0 mm 1 mps 722 mmHg 40%
    14:00 +36°C° 0 mm 1 mps 722 mmHg 43%
    15:00 +35°C° 0 mm 1 mps 722 mmHg 46%
    16:00 +34°C° 0 mm 1 mps 721 mmHg 49%
    17:00 +32°C° 0.1 mm 1 mps 722 mmHg 54%
    18:00 +30°C° 0.1 mm 1 mps 722 mmHg 58%
    19:00 +29°C° 0.1 mm 1 mps 722 mmHg 63%
    20:00 +28°C° 0 mm 1 mps 723 mmHg 66%
    21:00 +26°C° 0 mm 0 mps 723 mmHg 68%
    22:00 +25°C° 0 mm 0 mps 724 mmHg 71%
    23:00 +27°C° 0 mm 1 mps 723 mmHg 73%

    26 November, Tuesday

    Time Temperature Precipitation Wind Pressure Humidity
    00:00 +26°C° 0 mm 1 mps 723 mmHg 76%
    01:00 +26°C° 0 mm 1 mps 723 mmHg 78%
    02:00 +26°C° 0 mm 1 mps 722 mmHg 81%
    03:00 +25°C° 0 mm 1 mps 722 mmHg 84%
    04:00 +25°C° 0 mm 1 mps 722 mmHg 87%
    05:00 +25°C° 0 mm 1 mps 723 mmHg 85%
    06:00 +26°C° 0 mm 1 mps 723 mmHg 83%
    07:00 +26°C° 0 mm 1 mps 724 mmHg 82%
    08:00 +28°C° 0 mm 1 mps 724 mmHg 73%
    09:00 +31°C° 0 mm 1 mps 724 mmHg 63%
    10:00 +34°C° 0 mm 2 mps 724 mmHg 54%
    11:00 +34°C° 0.2 mm 2 mps 724 mmHg 52%
    12:00 +34°C° 0.2 mm 2 mps 723 mmHg 51%
    13:00 +35°C° 0.2 mm 3 mps 722 mmHg 49%
    14:00 +35°C° 0 mm 2 mps 722 mmHg 49%
    15:00 +34°C° 0 mm 2 mps 721 mmHg 49%
    16:00 +34°C° 0 mm 2 mps 721 mmHg 49%
    17:00 +32°C° 0 mm 1 mps 721 mmHg 54%
    18:00 +30°C° 0 mm 1 mps 722 mmHg 60%
    19:00 +28°C° 0 mm 1 mps 722 mmHg 65%
    20:00 +28°C° 0.2 mm 1 mps 722 mmHg 68%
    21:00 +25°C° 0.2 mm 0 mps 722 mmHg 71%
    22:00 +24°C° 0.2 mm 0 mps 723 mmHg 73%
    23:00 +24°C° 0.1 mm 0 mps 722 mmHg 75%
    Show more